Tracking 32523 objects as of 13-Dec-2025
HD Live streaming from Space Station
objects crossing your sky now

STARLINK-5768

Track STARLINK-5768 now!
10-day predictions
STARLINK-5768 is classified as:


NORAD ID: 57145
Int'l Code: 2023-090AW
Perigee: 565.4 km
Apogee: 567.0 km
Inclination: 43.0 °
Period: 95.8 minutes
Semi major axis: 6937 km
RCS: Unknown
Launch date: June 23, 2023
Source: United States (US)
Launch site: AIR FORCE EASTERN TEST RANGE (AFETR)
Your satellite tracking list
Your tracking list is empty




NASA's NSSDC Master Catalog

Two Line Element Set (TLE):
1 57145U 23090AW  25346.13435597  .00000252  00000-0  33697-4 0  9994
2 57145  43.0049  17.3009 0001134 267.5395  92.5317 15.02534500137205
Source of the keplerian elements: AFSPC